Location: ????????
(41.2031°N, 22.5756°E)
Time: 06:00:17
(UTC+00:00)

Cosmos 2369 Rocket - Pass Details

Date: 01 December 2020
Orbit: 829 x 852 km, 71.0° (Epoch: 20 January)

Event Time Altitude Azimuth Distance (km) Brightness Sun altitude
Rises 16:09:06 0° 339° (NNW) 3,420 5.4 -12.5°
Reaches altitude 10° 16:11:38 10° 344° (NNW) 2,478 4.6 -12.9°
Maximum altitude 16:17:13 57° 63° (ENE) 992 2.2 -13.9°
Drops below altitude 10° 16:22:45 10° 141° (SE) 2,448 4.4 -14.9°
Sets 16:25:13 0° 146° (SE) 3,375 5.1 -15.4°
